GW2129 Weather Reports


Display with metric or nautical units.
time (UTC)temp
F
wind
direction
speed
MPH
gust
MPH
rain 1hr
in
rain 24hr
in
rain mn
in
humidity
%
barometer
mb
20240520164401 87 215 2.0 4.0 0.00 0.00 0.00 58 1012.0
20240520163900 87 203 2.0 8.0 0.00 0.00 0.00 57 1011.8
20240520163358 87 328 3.0 7.0 0.00 0.00 0.00 56 1011.6
20240520162857 87 271 3.0 5.0 0.00 0.00 0.00 58 1011.8
20240520162355 86 284 4.0 4.0 0.00 0.00 0.00 62 1011.8
20240520161854 87 166 3.0 5.0 0.00 0.00 0.00 59 1011.5
20240520161346 87 21 2.0 4.0 0.00 0.00 0.00 59 1011.8
20240520160844 85 251 2.0 5.0 0.00 0.00 0.00 61 1011.7
20240520160344 86 296 2.0 6.0 0.00 0.00 0.00 62 1011.6
20240520155844 86 305 2.0 5.0 0.00 0.00 0.00 62 1011.8
20240520155343 86 294 3.0 5.0 0.00 0.00 0.00 60 1011.6
20240520154832 86 183 3.0 8.0 0.00 0.00 0.00 61 1011.5
20240520154332 85 171 1.0 7.0 0.00 0.00 0.00 64 1011.8
20240520153830 83 26 3.0 5.0 0.00 0.00 0.00 67 1011.6
20240520153329 83 282 3.0 8.0 0.00 0.00 0.00 65 1011.6
20240520152829 84 298 3.0 5.0 0.00 0.00 0.00 66 1011.6
20240520152327 84 330 3.0 7.0 0.00 0.00 0.00 66 1011.7
20240520151827 83 258 3.0 7.0 0.00 0.00 0.00 68 1011.5
20240520151325 84 139 2.0 8.0 0.00 0.00 0.00 65 1011.6
20240520150824 84 248 3.0 5.0 0.00 0.00 0.00 68 1011.7
20240520150323 83 256 3.0 6.0 0.00 0.00 0.00 69 1011.6
20240520145821 83 52 1.0 6.0 0.00 0.00 0.00 70 1011.5
20240520145319 81 286 3.0 5.0 0.00 0.00 0.00 73 1011.7
20240520144816 80 49 2.0 5.0 0.00 0.00 0.00 76 1011.8
20240520144315 80 319 0.0 3.0 0.00 0.00 0.00 77 1011.8
20240520143815 79 310 3.0 4.0 0.00 0.00 0.00 78 1011.7
20240520143312 79 223 4.0 6.0 0.00 0.00 0.00 78 1012.0
20240520142810 80 272 1.0 6.0 0.00 0.00 0.00 77 1011.6
20240520142309 80 149 1.0 3.0 0.00 0.00 0.00 76 1011.5
20240520141808 79 291 3.0 3.0 0.00 0.00 0.00 78 1011.6
20240520141158 80 16 2.0 3.0 0.00 0.00 0.00 77 1011.7
20240520140658 81 164 3.0 4.0 0.00 0.00 0.00 76 1011.6
20240520140157 81 277 2.0 3.0 0.00 0.00 0.00 77 1011.7
20240520135656 79 314 2.0 3.0 0.00 0.00 0.00 79 1011.5
20240520135156 78 279 1.0 4.0 0.00 0.00 0.00 81 1011.3
20240520134655 79 298 0.0 8.0 0.00 0.00 0.00 80 1011.4
20240520134153 79 299 3.0 5.0 0.00 0.00 0.00 80 1011.2
20240520133651 79 249 2.0 4.0 0.00 0.00 0.00 80 1010.9
20240520133151 79 239 2.0 4.0 0.00 0.00 0.00 80 1011.2
20240520132650 78 204 2.0 4.0 0.00 0.00 0.00 81 1011.0
20240520132150 78 105 2.0 4.0 0.00 0.00 0.00 82 1011.2
20240520131649 77 235 2.0 7.0 0.00 0.00 0.00 86 1011.2
20240520131148 75 160 1.0 6.0 0.00 0.00 0.00 88 1011.2
20240520130648 75 271 1.0 3.0 0.00 0.00 0.00 89 1011.0
20240520130146 75 170 2.0 4.0 0.00 0.00 0.00 89 1011.1
20240520125644 75 334 2.0 3.0 0.00 0.00 0.00 90 1010.9
20240520125143 75 238 2.0 6.0 0.00 0.00 0.00 90 1010.8
20240520124642 75 190 2.0 4.0 0.00 0.00 0.00 90 1010.9
20240520124140 74 243 0.0 4.0 0.00 0.00 0.00 90 1010.9
20240520123640 74 257 0.0 3.0 0.00 0.00 0.00 91 1010.9
20240520123139 74 60 0.0 3.0 0.00 0.00 0.00 92 1010.9
20240520122637 74 304 2.0 3.0 0.00 0.00 0.00 91 1010.8
20240520122134 74 5 1.0 3.0 0.00 0.00 0.00 91 1010.7
20240520121633 74 276 1.0 2.0 0.00 0.00 0.00 92 1010.9
20240520121131 74 198 1.0 2.0 0.00 0.00 0.00 92 1010.8
20240520120629 73 111 0.0 2.0 0.00 0.00 0.00 92 1010.7
20240520120130 73 271 1.0 2.0 0.00 0.00 0.00 92 1010.6
20240520115628 73 224 0.0 2.0 0.00 0.00 0.00 92 1010.6
20240520115126 73 89 0.0 3.0 0.00 0.00 0.00 91 1010.5
20240520114626 73 131 0.0 5.0 0.00 0.00 0.00 91 1010.5
20240520114124 74 62 0.0 2.0 0.00 0.00 0.00 91 1010.5
20240520113623 74 224 0.0 5.0 0.00 0.00 0.00 91 1010.6
20240520113122 74 279 0.0 3.0 0.00 0.00 0.00 91 1010.4
20240520112620 73 297 2.0 3.0 0.00 0.00 0.00 91 1010.5
20240520112119 73 336 0.0 3.0 0.00 0.00 0.00 91 1010.1
20240520111619 73 221 0.0 2.0 0.00 0.00 0.00 91 1010.5
20240520111117 73 122 0.0 2.0 0.00 0.00 0.00 91 1010.5
20240520110616 73 109 1.0 3.0 0.00 0.00 0.00 91 1010.5
20240520110115 73 131 0.0 3.0 0.00 0.00 0.00 91 1010.4
20240520105615 73 335 1.0 2.0 0.00 0.00 0.00 91 1010.5
20240520105114 72 95 1.0 2.0 0.00 0.00 0.00 91 1010.5
20240520104613 72 133 0.0 2.0 0.00 0.00 0.00 91 1010.4
20240520104111 72 322 0.0 2.0 0.00 0.00 0.00 92 1010.4
20240520103609 72 327 0.0 2.0 0.00 0.00 0.00 91 1010.7
20240520103106 72 260 0.0 3.0 0.00 0.00 0.00 91 1010.5
20240520102604 72 186 0.0 2.0 0.00 0.00 0.00 91 1010.9
20240520102104 71 218 0.0 3.0 0.00 0.00 0.00 91 1010.8
20240520101604 71 211 3.0 3.0 0.00 0.00 0.00 90 1010.6
20240520101102 71 275 1.0 3.0 0.00 0.00 0.00 90 1010.3
20240520100601 71 228 2.0 2.0 0.00 0.00 0.00 90 1010.6
20240520100100 71 129 2.0 2.0 0.00 0.00 0.00 90 1010.4
20240520095558 71 265 1.0 3.0 0.00 0.00 0.00 90 1010.4
20240520095057 71 271 1.0 3.0 0.00 0.00 0.00 90 1010.5
20240520094556 70 242 1.0 2.0 0.00 0.00 0.00 90 1010.1
20240520094055 70 222 2.0 2.0 0.00 0.00 0.00 90 1010.3
20240520093555 70 260 1.0 2.0 0.00 0.00 0.00 90 1010.4
20240520093054 70 240 0.0 1.0 0.00 0.00 0.00 90 1010.4
20240520092553 70 114 0.0 4.0 0.00 0.00 0.00 89 1010.1
20240520092051 70 164 0.0 3.0 0.00 0.00 0.00 89 1009.8
20240520091551 70 337 0.0 2.0 0.00 0.00 0.00 89 1009.8
20240520091050 69 240 0.0 1.0 0.00 0.00 0.00 89 1010.0
20240520090550 69 304 0.0 0.0 0.00 0.00 0.00 90 1010.0
20240520090050 69 244 1.0 2.0 0.00 0.00 0.00 89 1010.1
20240520085548 69 235 0.0 2.0 0.00 0.00 0.00 89 1010.1
20240520085046 69 159 1.0 2.0 0.00 0.00 0.00 89 1010.1
20240520084545 70 232 0.0 2.0 0.00 0.00 0.00 88 1010.0
20240520084045 70 296 0.0 1.0 0.00 0.00 0.00 87 1009.9
20240520083545 70 110 0.0 2.0 0.00 0.00 0.00 86 1010.3
20240520083043 70 225 1.0 3.0 0.00 0.00 0.00 84 1010.4
20240520082542 70 290 0.0 1.0 0.00 0.00 0.00 84 1010.5
20240520082040 70 227 2.0 2.0 0.00 0.00 0.00 83 1010.3
20240520081539 70 319 1.0 2.0 0.00 0.00 0.00 83 1010.4
20240520081038 71 135 0.0 2.0 0.00 0.00 0.00 82 1010.3
20240520080538 71 225 0.0 2.0 0.00 0.00 0.00 81 1010.0
20240520080037 71 1 0.0 2.0 0.00 0.00 0.00 81 1010.4
20240520075535 71 305 2.0 2.0 0.00 0.00 0.00 81 1010.5
20240520075034 71 289 0.0 2.0 0.00 0.00 0.00 81 1010.3
20240520074534 71 357 0.0 2.0 0.00 0.00 0.00 81 1010.4
20240520074032 71 72 1.0 3.0 0.00 0.00 0.00 80 1010.5
20240520073532 71 58 1.0 2.0 0.00 0.00 0.00 80 1010.8
20240520073032 72 87 2.0 2.0 0.00 0.00 0.00 80 1010.8
20240520072531 72 159 0.0 2.0 0.00 0.00 0.00 80 1010.7
20240520072031 72 5 1.0 3.0 0.00 0.00 0.00 81 1010.8
20240520071530 72 269 0.0 2.0 0.00 0.00 0.00 81 1010.6
20240520071029 72 217 0.0 2.0 0.00 0.00 0.00 81 1011.1
20240520070529 72 328 0.0 2.0 0.00 0.00 0.00 82 1011.0
20240520070029 72 46 1.0 1.0 0.00 0.00 0.00 82 1011.0
20240520065529 72 312 0.0 2.0 0.00 0.00 0.00 82 1011.1
20240520065029 73 290 0.0 3.0 0.00 0.00 0.00 81 1010.9
20240520064528 73 247 0.0 3.0 0.00 0.00 0.00 81 1011.2
20240520064028 73 25 0.0 4.0 0.00 0.00 0.00 81 1011.3
20240520063527 73 184 2.0 3.0 0.00 0.00 0.00 81 1011.1
20240520063026 74 285 2.0 3.0 0.00 0.00 0.00 81 1011.2
20240520062525 74 233 2.0 3.0 0.00 0.00 0.00 81 1011.0
20240520062024 74 293 1.0 3.0 0.00 0.00 0.00 81 1011.1
20240520061522 74 197 3.0 4.0 0.00 0.00 0.00 82 1011.4
20240520061021 74 265 2.0 4.0 0.00 0.00 0.00 82 1011.3
20240520060519 75 204 1.0 6.0 0.00 0.00 0.00 81 1011.2
20240520060017 75 192 1.0 5.0 0.00 0.00 0.00 81 1011.3
20240520055516 75 255 0.0 6.0 0.00 0.00 0.00 82 1011.2
20240520055015 75 332 1.0 5.0 0.00 0.00 0.00 82 1011.6
20240520054514 75 273 2.0 4.0 0.00 0.00 0.00 82 1011.7
20240520054010 75 271 3.0 4.0 0.00 0.00 0.00 82 1011.4
20240520053507 75 212 2.0 4.0 0.00 0.00 0.00 82 1011.6
20240520053007 76 181 1.0 3.0 0.00 0.00 0.00 82 1011.5
20240520052505 76 265 0.0 3.0 0.00 0.00 0.00 81 1011.2
20240520052007 76 209 2.0 3.0 0.00 0.00 0.00 81 1011.4
20240520051503 76 199 2.0 5.0 0.00 0.00 0.00 80 1011.3
20240520051001 77 108 2.0 4.0 0.00 0.00 0.00 80 1011.3
20240520050500 77 82 0.0 2.0 0.00 0.00 0.00 80 1011.4
20240520045959 77 188 3.0 4.0 0.00 0.00 0.00 79 1011.4
20240520045458 77 343 0.0 2.0 0.00 0.00 0.00 79 1011.5
20240520044957 77 191 1.0 4.0 0.00 0.00 0.00 78 1011.2
20240520044456 77 236 1.0 3.0 0.00 0.00 0.00 77 1011.1
20240520043954 77 180 0.0 3.0 0.00 0.00 0.00 77 1011.1
20240520043453 78 213 2.0 3.0 0.00 0.00 0.00 76 1011.0
20240520042952 78 257 2.0 3.0 0.00 0.00 0.00 75 1010.9
20240520042451 78 87 1.0 3.0 0.00 0.00 0.00 74 1011.3
20240520041949 78 126 5.0 6.0 0.00 0.00 0.00 74 1011.0
20240520041447 78 185 0.0 3.0 0.00 0.00 0.00 73 1011.1
20240520040946 78 236 1.0 4.0 0.00 0.00 0.00 72 1011.0
20240520040445 79 240 1.0 5.0 0.00 0.00 0.00 72 1011.1
20240520035944 79 213 5.0 5.0 0.00 0.00 0.00 71 1011.3
20240520035444 79 210 2.0 3.0 0.00 0.00 0.00 71 1011.2
20240520034942 79 232 0.0 5.0 0.00 0.00 0.00 69 1011.3
20240520034440 79 147 2.0 6.0 0.00 0.00 0.00 69 1011.1
20240520033939 80 225 2.0 3.0 0.00 0.00 0.00 68 1010.9
20240520033439 80 182 3.0 6.0 0.00 0.00 0.00 66 1011.1
20240520032938 80 285 0.0 4.0 0.00 0.00 0.00 65 1011.1
20240520032435 80 116 4.0 6.0 0.00 0.00 0.00 64 1011.0
20240520031934 81 114 2.0 7.0 0.00 0.00 0.00 62 1010.9
20240520031428 81 104 2.0 11.0 0.00 0.00 0.00 61 1011.0
20240520030927 81 189 2.0 5.0 0.00 0.00 0.00 61 1010.9
20240520030426 81 138 0.0 5.0 0.00 0.00 0.00 61 1010.9
20240520025925 81 129 2.0 5.0 0.00 0.00 0.00 60 1010.9
20240520025424 81 136 2.0 3.0 0.00 0.00 0.00 60 1010.9
20240520024923 81 139 0.0 5.0 0.00 0.00 0.00 60 1010.9
20240520024422 81 73 0.0 2.0 0.00 0.00 0.00 60 1011.0
20240520023921 82 125 1.0 3.0 0.00 0.00 0.00 60 1010.7
20240520023420 82 178 2.0 3.0 0.00 0.00 0.00 60 1010.8
20240520022918 82 150 2.0 3.0 0.00 0.00 0.00 60 1011.0
20240520022417 82 137 0.0 3.0 0.00 0.00 0.00 60 1010.9
20240520021916 82 264 0.0 3.0 0.00 0.00 0.00 60 1010.8
20240520021416 82 122 0.0 3.0 0.00 0.00 0.00 60 1010.6
20240520020914 82 215 1.0 3.0 0.00 0.00 0.00 59 1010.5
20240520020413 83 138 1.0 6.0 0.00 0.00 0.00 58 1010.4
20240520015911 83 98 2.0 6.0 0.00 0.00 0.00 58 1010.5
20240520015410 83 194 0.0 3.0 0.00 0.00 0.00 58 1010.5
20240520014910 84 153 1.0 2.0 0.00 0.00 0.00 58 1010.5
20240520014409 84 145 3.0 5.0 0.00 0.00 0.00 57 1010.7
20240520013907 84 140 2.0 4.0 0.00 0.00 0.00 57 1010.7
20240520013406 85 149 1.0 3.0 0.00 0.00 0.00 56 1010.4
20240520012904 85 177 2.0 5.0 0.00 0.00 0.00 56 1010.6
20240520012402 85 152 2.0 6.0 0.00 0.00 0.00 56 1010.4
20240520011902 86 121 3.0 3.0 0.00 0.00 0.00 56 1010.6
20240520011400 86 135 4.0 7.0 0.00 0.00 0.00 55 1010.5
20240520010857 86 124 4.0 5.0 0.00 0.00 0.00 54 1010.5
20240520010357 87 105 3.0 4.0 0.00 0.00 0.00 53 1010.6
20240520005856 87 131 2.0 4.0 0.00 0.00 0.00 52 1010.5
20240520005354 88 110 3.0 4.0 0.00 0.00 0.00 50 1010.4
20240520004850 88 136 0.0 4.0 0.00 0.00 0.00 50 1010.4
20240520004348 88 136 3.0 6.0 0.00 0.00 0.00 51 1010.3
20240520003847 89 154 3.0 6.0 0.00 0.00 0.00 51 1010.6
20240520003347 89 146 4.0 8.0 0.00 0.00 0.00 50 1010.6
20240520002846 89 138 8.0 8.0 0.00 0.00 0.00 48 1010.4
20240520002344 90 147 4.0 9.0 0.00 0.00 0.00 48 1010.5
20240520001843 90 151 2.0 8.0 0.00 0.00 0.00 47 1010.4
20240520001342 90 109 4.0 6.0 0.00 0.00 0.00 47 1010.3
20240520000842 91 159 3.0 4.0 0.00 0.00 0.00 47 1010.5
20240520000340 90 115 7.0 8.0 0.00 0.00 0.00 46 1010.6
20240519235839 91 120 2.0 12.0 0.00 0.00 0.00 46 1010.5
20240519235337 91 113 6.0 12.0 0.00 0.00 0.00 46 1010.6
20240519234835 91 139 5.0 9.0 0.00 0.00 0.00 45 1010.3
20240519234333 91 109 5.0 10.0 0.00 0.00 0.00 45 1010.5
20240519233832 92 357 0.0 5.0 0.00 0.00 0.00 45 1010.6
20240519233330 91 123 5.0 10.0 0.00 0.00 0.00 44 1010.7
20240519232829 91 126 4.0 6.0 0.00 0.00 0.00 44 1010.8
20240519232328 92 116 4.0 7.0 0.00 0.00 0.00 44 1010.9
20240519231828 92 107 1.0 8.0 0.00 0.00 0.00 44 1010.8
20240519231327 92 115 9.0 9.0 0.00 0.00 0.00 43 1010.6
20240519230827 93 119 3.0 3.0 0.00 0.00 0.00 42 1010.8
20240519230326 92 168 2.0 7.0 0.00 0.00 0.00 44 1010.7
20240519225825 92 161 5.0 7.0 0.00 0.00 0.00 43 1010.7
20240519225323 92 108 8.0 10.0 0.00 0.00 0.00 43 1010.8
20240519224823 92 107 2.0 7.0 0.00 0.00 0.00 44 1010.9
20240519224322 93 134 4.0 9.0 0.00 0.00 0.00 43 1011.0
20240519223822 92 117 4.0 10.0 0.00 0.00 0.00 44 1010.9
20240519223321 93 135 4.0 6.0 0.00 0.00 0.00 43 1010.8
20240519222820 93 179 2.0 10.0 0.00 0.00 0.00 44 1010.9
20240519222319 92 106 3.0 9.0 0.00 0.00 0.00 46 1010.9
20240519221817 92 132 3.0 9.0 0.00 0.00 0.00 45 1010.8
20240519221316 92 111 6.0 8.0 0.00 0.00 0.00 45 1011.2
20240519220814 93 120 3.0 8.0 0.00 0.00 0.00 44 1010.9
20240519220313 93 125 5.0 9.0 0.00 0.00 0.00 44 1011.0
20240519215812 93 109 5.0 8.0 0.00 0.00 0.00 45 1010.9
20240519215310 93 186 2.0 8.0 0.00 0.00 0.00 44 1011.3
20240519214809 94 305 2.0 7.0 0.00 0.00 0.00 44 1011.2
20240519214308 92 226 2.0 5.0 0.00 0.00 0.00 45 1011.0
20240519213806 93 120 2.0 4.0 0.00 0.00 0.00 44 1011.3
20240519213305 92 160 3.0 11.0 0.00 0.00 0.00 44 1011.4
20240519212803 92 95 6.0 11.0 0.00 0.00 0.00 46 1011.2
20240519212303 92 98 4.0 9.0 0.00 0.00 0.00 46 1011.5
20240519211802 92 129 4.0 10.0 0.00 0.00 0.00 46 1011.6
20240519211301 91 108 4.0 12.0 0.00 0.00 0.00 47 1011.6
20240519210759 93 155 2.0 8.0 0.00 0.00 0.00 45 1011.6
20240519210259 91 132 3.0 9.0 0.00 0.00 0.00 46 1011.7
20240519205757 93 131 9.0 9.0 0.00 0.00 0.00 45 1011.9
20240519205256 92 159 5.0 11.0 0.00 0.00 0.00 45 1012.0
20240519204754 93 134 6.0 6.0 0.00 0.00 0.00 44 1011.9
20240519204253 93 234 2.0 5.0 0.00 0.00 0.00 45 1012.0
20240519203752 92 137 4.0 6.0 0.00 0.00 0.00 46 1012.1
20240519203252 92 125 3.0 10.0 0.00 0.00 0.00 46 1012.3
20240519202750 92 134 7.0 13.0 0.00 0.00 0.00 44 1012.5
20240519202250 92 269 0.0 5.0 0.00 0.00 0.00 47 1012.3
20240519201749 93 104 7.0 9.0 0.00 0.00 0.00 44 1012.3
20240519201247 93 206 2.0 6.0 0.00 0.00 0.00 46 1012.6
20240519200746 93 118 5.0 7.0 0.00 0.00 0.00 45 1012.5
20240519200244 93 284 3.0 4.0 0.00 0.00 0.00 47 1012.5
20240519195744 92 167 3.0 9.0 0.00 0.00 0.00 46 1012.8
20240519195241 92 133 4.0 6.0 0.00 0.00 0.00 48 1012.6
20240519194739 91 152 7.0 14.0 0.00 0.00 0.00 48 1013.0
20240519194238 91 158 2.0 5.0 0.00 0.00 0.00 47 1012.8
20240519193736 92 135 0.0 6.0 0.00 0.00 0.00 46 1013.0
20240519193236 91 131 8.0 11.0 0.00 0.00 0.00 47 1013.1
20240519192734 91 224 1.0 4.0 0.00 0.00 0.00 48 1013.0
20240519192233 91 114 4.0 6.0 0.00 0.00 0.00 49 1013.3
20240519191733 92 312 3.0 6.0 0.00 0.00 0.00 49 1013.2
20240519191231 90 153 2.0 5.0 0.00 0.00 0.00 51 1013.4
20240519190730 91 128 2.0 6.0 0.00 0.00 0.00 49 1013.5
20240519190230 92 182 2.0 6.0 0.00 0.00 0.00 48 1013.4
20240519185729 91 143 2.0 5.0 0.00 0.00 0.00 49 1013.4
20240519185227 90 252 5.0 10.0 0.00 0.00 0.00 50 1013.6
20240519184727 90 191 1.0 5.0 0.00 0.00 0.00 51 1013.7
20240519184226 90 148 2.0 11.0 0.00 0.00 0.00 51 1013.8
20240519183725 90 290 2.0 10.0 0.00 0.00 0.00 51 1013.9
20240519183224 91 203 4.0 6.0 0.00 0.00 0.00 49 1013.8
20240519182723 90 258 2.0 5.0 0.00 0.00 0.00 51 1014.0
20240519182222 89 172 1.0 6.0 0.00 0.00 0.00 52 1014.2
20240519181721 89 142 3.0 8.0 0.00 0.00 0.00 50 1014.2
20240519181221 89 198 5.0 8.0 0.00 0.00 0.00 49 1014.2
20240519180719 88 206 4.0 7.0 0.00 0.00 0.00 53 1014.5
20240519180217 90 150 1.0 7.0 0.00 0.00 0.00 52 1014.6
20240519175715 90 206 2.0 6.0 0.00 0.00 0.00 51 1014.4
20240519175215 89 219 3.0 8.0 0.00 0.00 0.00 52 1014.5
20240519174715 89 258 7.0 9.0 0.00 0.00 0.00 52 1014.6
20240519174215 88 99 2.0 4.0 0.00 0.00 0.00 56 1014.7
20240519173714 89 330 3.0 8.0 0.00 0.00 0.00 54 1015.0
20240519173214 89 208 0.0 3.0 0.00 0.00 0.00 53 1014.7
20240519172712 87 283 1.0 3.0 0.00 0.00 0.00 57 1015.1
20240519172212 88 108 6.0 7.0 0.00 0.00 0.00 53 1015.0
20240519171711 88 211 1.0 7.0 0.00 0.00 0.00 54 1015.1
20240519171210 87 237 3.0 5.0 0.00 0.00 0.00 55 1015.2
20240519170709 86 116 3.0 7.0 0.00 0.00 0.00 56 1015.3
20240519170208 87 140 7.0 10.0 0.00 0.00 0.00 55 1015.4
20240519165707 87 207 4.0 8.0 0.00 0.00 0.00 53 1015.6
20240519165206 87 161 5.0 5.0 0.00 0.00 0.00 55 1015.2
20240519164704 86 164 2.0 7.0 0.00 0.00 0.00 56 1015.4